Terminal Aerodrome Forecast
Issued by NWS Charleston, WV

Current Version | Previous Version | Graphics & Text | Print | Product List | Glossary On
Versions: 1 2 3 4 5 6 7 8 9 10 11 12 13 14 15 16 17 18 19 20 21
000
FTUS41 KRLX 101500 AAA
TAFBKW
TAF AMD
KBKW 101539Z 1016/1112 23005KT P6SM SCT080
     FM102000 33004KT P6SM BKN040
     FM110500 00000KT P6SM FEW035
     FM111000 00000KT 6SM BR FEW090=

USA.gov is the U.S. government's official web portal to all federal, state and local government web resources and services.